GFSMA_700_spd_135.txt.gz
Wind_Speed
16 17 16 15 12 10 11 12 12 12 12 12 12 14 14 15 16 14 12 10 8 7 5 4 3 5 10 13 13 10 9 10 13 16 16 16 18 18 14 12 10 9 9
18 17 14 14 12 11 16 12 12 12 13 13 13 13 13 11 11 9 8 6 4 3 3 3 5 8 13 16 16 15 12 11 11 14 15 15 18 17 14 13 11 10 10
17 17 15 11 12 13 17 14 13 14 16 16 13 13 10 9 7 5 5 4 4 5 6 8 10 10 12 13 16 18 18 12 10 12 14 15 17 16 13 12 12 12 10
14 14 15 14 12 13 16 15 13 12 13 15 13 10 10 7 4 3 3 4 4 5 7 12 16 22 24 20 21 18 18 17 11 13 14 16 16 14 12 11 11 12 12
12 12 13 15 15 16 18 16 15 14 12 11 10 9 7 5 2 2 4 5 6 7 12 18 17 24 24 25 21 20 18 17 12 10 16 17 16 14 10 11 11 11 12
14 12 15 15 17 18 17 15 14 16 14 11 8 7 6 4 1 1 3 6 9 13 17 25 25 23 26 26 19 22 17 13 13 12 16 18 16 13 9 9 10 10 10
14 13 14 14 19 19 18 17 13 13 13 12 10 6 4 3 2 1 3 7 10 17 16 22 29 28 14 11 18 15 14 10 13 16 15 15 14 12 9 10 10 10 10
16 12 12 17 19 18 16 14 13 12 12 11 11 8 4 4 7 10 12 14 16 16 14 19 17 7 7 7 9 13 12 12 16 15 15 14 11 9 8 8 9 10 11
16 16 12 18 19 18 17 16 14 13 11 9 9 7 8 11 13 11 12 16 13 12 12 13 9 13 12 5 7 9 9 12 15 15 15 15 11 8 7 8 9 11 12
16 18 13 18 21 22 17 17 14 14 13 12 13 12 11 10 11 12 13 13 13 11 12 9 13 13 11 11 10 12 12 15 15 16 14 14 12 10 9 10 10 12 13
15 15 17 16 17 19 18 19 19 16 14 14 14 12 12 14 17 16 11 13 16 17 16 17 15 13 15 14 9 13 13 17 19 19 15 12 11 9 8 9 11 11 12
15 17 18 16 14 19 17 14 12 15 20 17 14 13 12 13 13 16 16 17 15 12 14 17 15 15 16 15 8 10 16 18 20 19 17 13 11 11 8 9 9 10 11
14 13 15 18 18 19 14 16 16 18 17 16 17 16 16 17 18 18 19 19 15 14 15 15 14 16 15 14 15 16 21 20 21 18 17 14 12 10 10 10 10 8 7
13 14 13 15 19 19 20 20 20 18 17 18 17 16 18 20 20 20 20 18 16 17 16 16 15 15 14 15 15 18 17 19 19 16 14 12 13 12 12 10 10 10 8
17 18 16 15 17 18 20 20 18 17 17 16 15 15 17 17 17 17 17 16 17 17 18 20 19 16 17 17 16 16 16 17 18 16 14 14 14 13 13 11 12 11 10
16 17 16 15 14 16 17 18 16 17 18 18 17 17 16 17 19 19 18 18 19 19 19 19 21 19 19 19 18 18 17 17 17 14 16 15 17 15 14 12 12 13 11
16 16 17 17 16 17 18 17 17 18 18 17 17 17 15 17 19 19 18 19 20 21 20 19 21 22 21 20 20 19 18 18 19 18 18 19 16 17 16 14 13 14 14
20 19 20 20 20 18 18 18 17 18 19 18 17 15 15 16 15 17 17 19 21 19 18 16 18 19 19 19 20 19 19 19 19 19 17 19 20 19 20 17 15 14 13
23 22 23 22 21 19 19 19 19 21 20 18 16 16 17 17 16 17 18 18 19 18 18 19 19 20 21 21 22 22 21 19 17 18 17 16 17 19 19 20 18 17 16
28 27 26 24 22 21 20 20 19 21 20 18 19 18 17 18 18 19 21 22 21 21 21 24 25 25 25 25 23 23 20 19 18 18 18 18 17 19 20 21 19 18 18
30 29 28 27 24 24 23 22 22 22 21 20 21 21 21 20 19 19 22 25 25 26 26 28 28 28 25 24 23 24 23 22 19 18 19 19 19 20 19 19 20 20 20
33 33 31 29 30 28 24 24 24 25 25 24 24 23 22 22 22 23 24 25 28 28 28 29 26 24 24 24 25 25 25 23 23 21 21 20 20 20 19 20 22 22 23
32 34 33 32 31 28 28 27 25 25 25 23 23 24 25 25 27 29 30 31 29 27 26 26 25 24 23 24 26 29 28 28 28 26 25 22 21 21 21 22 23 24 24
31 33 33 31 30 30 29 27 26 25 24 25 26 28 29 29 32 32 32 31 29 28 27 26 26 26 27 28 29 28 30 28 28 26 23 23 21 20 22 23 22 22 25
35 35 36 36 36 32 28 28 28 26 26 28 30 29 30 30 29 28 29 27 24 24 26 29 29 30 29 31 31 34 27 22 19 19 21 22 20 19 19 20 22 22 24
40 37 36 38 36 33 32 29 27 27 26 30 31 32 32 27 25 23 24 25 23 26 28 29 22 17 16 15 11 13 16 19 21 21 18 15 17 19 20 22 26 27 28

GFSMA_700_spd_138.txt.gz
Wind_Speed
14 13 13 12 10 8 9 11 12 12 12 12 13 12 12 11 11 10 8 7 7 7 7 8 11 15 18 21 19 20 21 20 17 16 16 15 18 15 13 12 10 9 7
14 14 13 10 8 8 10 11 9 8 10 12 14 14 13 10 9 8 6 6 7 8 8 10 13 15 17 19 20 21 23 21 20 16 16 14 17 16 14 13 11 11 10
15 14 11 10 7 9 13 11 9 9 10 11 13 12 11 9 7 6 6 6 7 8 10 14 15 17 20 21 19 19 21 22 21 17 15 15 17 14 12 11 11 11 10
14 14 12 8 8 10 13 11 12 14 12 12 11 8 6 5 4 4 5 6 7 7 11 16 15 19 23 25 21 18 17 22 22 17 15 17 16 13 10 11 11 10 10
15 14 13 10 8 9 12 11 11 12 12 11 11 8 6 3 1 1 3 5 5 7 10 15 18 21 24 29 19 14 17 22 20 18 18 18 15 11 9 10 11 11 10
15 13 13 13 12 13 14 13 12 11 8 8 8 7 5 2 1 2 4 4 6 8 11 14 24 24 18 13 12 10 17 19 19 19 20 15 12 9 7 8 10 11 11
16 15 16 14 14 15 15 15 12 11 11 9 7 6 5 2 1 3 6 10 11 13 12 15 15 14 17 11 9 10 13 17 18 18 15 14 10 9 8 8 9 11 12
18 15 15 16 16 16 16 16 12 11 10 10 9 7 6 4 3 8 10 10 14 11 12 15 12 16 13 11 12 11 13 14 17 16 14 13 10 8 7 9 10 11 13
16 16 12 16 17 17 18 16 13 12 10 11 9 9 10 9 11 10 9 12 12 13 11 13 12 11 13 7 11 10 15 16 18 17 15 10 9 8 7 8 9 11 13
14 16 13 15 18 19 17 16 15 14 14 12 12 10 12 15 14 13 15 17 12 16 15 18 16 15 12 12 13 11 13 15 17 18 15 13 9 8 7 8 10 12 12
14 15 17 12 17 19 18 15 15 17 14 16 15 15 16 15 15 15 10 12 14 17 14 16 14 9 10 10 13 6 11 16 18 17 15 12 11 8 5 6 8 10 12
16 16 17 16 15 17 18 19 20 19 19 16 14 13 15 17 17 16 16 16 16 16 15 13 9 12 12 8 10 10 16 19 17 17 14 12 10 9 6 7 7 9 10
13 14 17 18 16 15 15 18 16 15 14 14 16 17 18 19 18 19 20 20 17 14 13 13 12 12 13 13 13 13 16 18 18 17 14 11 11 11 9 9 9 8 8
13 15 16 18 19 19 19 18 17 17 16 17 19 19 19 20 19 19 19 19 16 15 14 14 14 13 13 15 14 13 15 16 17 17 16 13 13 11 12 12 10 10 10
15 16 16 17 18 19 19 22 21 19 19 19 19 19 18 19 19 18 17 17 18 18 15 15 17 16 15 15 16 16 15 16 16 15 13 15 14 14 12 12 12 11 11
14 15 14 15 16 17 19 18 19 19 20 20 19 18 19 19 18 18 19 17 18 20 20 19 18 17 16 17 17 17 15 16 17 16 15 15 16 16 13 12 12 12 12
18 17 14 15 16 15 17 16 17 18 19 18 17 18 18 19 18 18 18 18 18 20 20 18 18 17 16 16 18 17 15 16 17 17 14 15 15 16 16 16 15 15 14
20 18 17 18 17 17 18 17 17 17 18 18 18 19 17 20 18 17 17 17 19 21 21 18 16 18 19 21 21 21 18 17 18 17 17 16 15 13 13 17 15 15 17
24 23 21 20 20 21 21 20 20 20 19 19 20 21 19 20 19 18 17 18 20 21 22 22 22 23 24 25 27 27 25 22 20 19 18 17 17 17 18 17 17 17 18
28 26 23 22 23 24 23 23 21 21 21 20 22 22 22 24 17 19 20 21 21 22 22 24 26 26 27 29 28 27 24 23 22 21 20 20 19 19 19 21 21 22 23
30 29 28 27 26 26 27 26 22 22 22 21 21 20 22 19 22 23 23 22 22 24 26 29 31 31 29 28 27 27 24 23 22 23 22 21 21 20 20 22 23 23 22
29 33 32 31 29 29 29 26 25 24 23 24 24 23 26 26 25 24 24 24 26 29 30 31 31 31 28 27 28 27 26 26 25 24 26 25 24 24 24 24 23 24 23
31 32 35 34 32 31 29 29 27 26 25 26 25 25 26 26 25 25 27 28 31 35 36 32 31 29 29 28 27 27 27 29 30 30 29 29 28 26 27 27 27 26 24
36 34 36 37 35 33 31 31 30 28 27 27 26 26 27 27 28 29 31 33 32 33 34 32 28 28 29 31 30 31 31 31 32 35 32 29 28 26 24 24 26 26 26
40 35 34 36 37 35 32 30 30 30 28 27 26 26 27 29 32 33 33 31 31 31 26 30 26 27 24 26 27 25 22 21 21 16 17 21 26 24 28 23 21 22 24
41 39 35 34 35 35 33 32 30 29 28 29 27 26 26 28 29 32 34 29 28 28 26 26 19 23 26 13 13 12 11 15 20 23 23 20 21 25 27 28 32 29 30

GFSMA_700_spd_141.txt.gz
Wind_Speed
13 13 12 10 9 9 12 13 12 10 9 10 12 12 12 10 8 7 8 8 8 9 10 12 12 14 17 19 17 17 17 19 19 18 17 16 17 14 11 9 7 5 5
12 11 10 8 6 8 11 11 8 7 8 9 12 11 9 8 6 6 7 7 7 7 9 10 11 14 16 20 19 17 17 19 20 18 17 17 19 16 10 9 9 9 8
13 10 9 7 5 9 11 9 7 6 8 9 10 9 8 6 5 4 5 5 4 6 8 12 13 15 19 19 20 18 13 15 20 17 16 18 20 17 9 7 8 9 10
12 10 7 7 6 11 11 9 8 7 7 8 9 9 7 4 2 3 4 4 3 4 9 14 17 22 23 21 22 15 9 12 20 17 17 22 21 15 10 7 7 8 9
12 11 10 8 9 11 11 10 10 10 9 8 8 7 5 3 1 2 2 3 5 8 11 16 19 19 21 13 10 9 8 13 19 18 18 21 16 10 8 8 8 8 9
13 13 13 11 9 11 11 10 11 11 10 8 6 5 4 2 1 2 4 6 9 13 15 11 13 18 19 17 13 12 11 15 18 19 19 17 13 8 6 7 9 10 10
14 14 14 13 13 12 13 12 12 10 8 7 7 5 4 2 2 4 8 11 10 12 12 13 14 17 19 15 13 13 13 15 16 20 16 14 11 7 5 6 7 9 10
14 15 14 15 15 14 15 15 13 11 8 6 6 6 6 5 5 10 11 9 12 10 13 14 16 16 18 15 15 14 15 17 17 17 16 12 11 7 5 6 8 9 10
16 16 14 16 15 16 16 16 16 12 10 8 9 9 9 9 8 10 11 12 14 13 16 16 18 17 16 15 15 16 12 15 15 17 16 11 8 7 5 4 6 9 11
13 14 15 14 16 17 17 16 15 13 10 10 11 9 11 11 15 13 14 15 12 13 17 15 17 16 12 12 13 9 8 14 16 17 15 12 10 8 6 6 7 9 10
12 14 16 15 13 15 15 15 14 16 15 13 12 14 13 12 12 14 13 13 13 17 18 14 13 11 11 11 10 8 10 16 17 18 16 14 11 9 6 7 9 10 10
15 14 16 17 13 13 16 17 17 17 17 16 16 13 12 13 13 16 16 17 16 14 15 13 11 10 10 9 10 10 11 14 15 16 15 11 9 10 8 8 9 8 9
14 14 16 16 17 15 15 17 18 18 16 15 13 13 14 15 15 17 18 18 16 13 12 13 14 13 12 11 12 12 11 13 14 16 15 12 10 10 9 8 8 9 9
13 14 16 16 18 17 17 14 15 16 14 15 15 14 16 18 18 18 17 17 15 13 11 12 14 15 14 13 14 13 15 15 14 16 15 13 13 11 11 9 8 9 9
12 14 15 16 17 19 20 18 18 19 16 18 16 16 16 18 20 18 19 17 17 14 11 12 15 14 14 14 14 15 16 16 15 16 16 15 14 13 13 11 9 9 10
13 13 13 14 15 17 18 20 21 21 20 20 19 18 19 20 19 18 17 17 17 15 14 15 15 15 13 14 13 13 14 15 17 18 18 17 16 16 14 13 12 12 12
17 16 15 14 15 17 16 18 18 17 17 18 19 19 19 18 18 18 17 16 14 16 16 15 15 14 13 15 16 16 16 16 16 17 18 17 17 15 15 12 13 14 14
23 21 20 18 16 16 17 16 16 17 18 18 18 19 17 18 18 19 18 17 17 17 18 18 17 18 18 19 21 22 22 21 20 19 18 17 17 15 15 15 14 14 14
27 26 24 20 19 19 20 20 20 19 18 18 20 21 19 20 19 19 20 18 18 19 20 20 21 21 23 25 25 27 26 23 21 19 19 19 18 18 18 17 16 15 16
31 29 28 26 24 23 23 23 21 21 21 22 21 20 21 21 19 20 21 19 21 22 21 21 22 25 27 27 27 26 24 22 22 21 21 21 21 21 22 21 19 22 22
32 34 33 31 29 27 25 25 24 24 24 23 22 20 19 19 21 20 23 23 23 23 23 24 27 29 32 30 28 25 24 23 21 20 21 22 23 24 24 24 24 25 23
32 35 36 35 33 33 28 27 27 26 26 26 24 23 22 22 22 21 23 25 24 25 27 29 31 32 32 28 26 25 25 23 22 21 24 25 27 27 28 28 29 29 29
39 41 35 35 37 36 33 31 28 29 28 26 25 26 23 23 24 24 24 25 27 28 30 32 31 32 30 26 27 26 27 28 26 27 28 29 29 29 28 28 32 28 27
48 49 43 37 35 38 36 34 31 31 31 29 27 26 24 24 24 24 26 28 29 32 32 32 31 26 26 25 25 22 24 26 26 20 21 18 18 18 19 20 26 28 31
48 49 47 43 39 37 38 38 35 34 31 30 28 26 25 25 25 26 27 30 28 28 33 32 27 25 19 20 23 23 10 11 12 16 19 22 25 25 25 27 29 27 26
50 54 52 48 44 39 37 38 38 35 32 30 29 27 27 27 26 25 23 28 32 30 27 27 25 20 6 9 12 14 17 19 20 20 22 23 25 24 27 28 28 30 32

GFSMA_700_spd_144.txt.gz
Wind_Speed
11 12 11 9 7 7 10 11 9 7 7 8 11 12 10 7 7 6 5 4 5 5 5 8 11 13 13 17 15 16 12 13 15 14 12 12 15 15 14 11 9 8 7
11 10 10 9 8 9 11 11 9 7 8 10 11 12 10 7 5 3 2 3 3 3 7 11 14 16 17 18 13 16 12 11 16 18 16 15 15 15 13 10 9 8 8
11 9 8 7 7 9 10 9 6 5 6 9 9 9 7 6 3 2 1 1 3 5 10 13 19 22 23 20 17 16 9 8 14 18 17 18 16 13 11 8 7 9 9
10 10 9 7 5 10 10 8 5 5 7 8 8 8 6 4 2 0 2 4 7 10 13 16 18 17 21 18 13 11 8 11 15 17 16 18 16 11 8 7 6 6 8
11 10 9 7 6 11 11 8 6 6 6 7 5 5 4 2 1 2 5 6 10 14 17 16 12 17 18 16 15 13 13 14 16 18 17 16 15 9 6 6 5 6 6
12 11 10 8 9 12 12 10 9 9 8 9 5 5 4 2 2 3 6 10 13 14 13 13 15 16 18 18 15 15 14 16 17 19 18 14 14 9 5 4 5 6 6
12 12 12 11 10 12 13 12 11 9 9 7 3 4 3 3 3 5 9 10 11 11 12 13 15 17 18 17 15 14 14 16 16 18 19 14 10 8 6 4 4 6 7
10 12 12 12 12 13 15 14 12 11 9 7 4 2 2 4 7 8 9 10 12 13 13 16 16 17 16 14 14 15 11 14 15 18 18 14 9 7 6 5 6 6 7
11 12 12 14 14 15 17 16 15 12 11 9 7 6 3 4 9 12 11 13 13 11 14 17 15 17 14 12 11 10 7 12 16 17 16 14 11 8 5 4 5 7 8
12 12 13 14 14 16 17 18 17 15 13 11 9 9 7 9 9 6 10 14 12 14 15 14 15 13 12 13 9 8 8 12 15 16 15 12 9 8 6 5 6 7 8
9 11 14 15 13 13 15 18 18 17 16 14 12 11 12 10 7 7 6 10 12 13 14 13 13 13 14 12 10 10 10 11 14 14 14 12 8 7 6 7 7 7 7
12 11 12 14 14 12 14 16 18 16 16 14 13 13 12 11 9 10 10 12 14 12 14 10 10 13 14 14 13 13 12 11 12 13 13 13 10 10 8 8 8 7 7
14 12 13 14 15 15 12 14 17 16 17 15 15 14 13 11 11 12 14 14 13 12 12 10 11 12 13 14 15 13 12 13 14 13 14 13 11 11 10 10 10 8 7
13 13 14 15 16 15 16 14 14 15 17 13 11 12 13 13 14 13 14 15 13 9 10 15 12 14 13 12 13 14 13 14 14 14 14 14 14 13 11 11 10 10 9
15 15 15 16 16 15 16 15 16 12 14 13 14 14 14 15 15 14 15 15 14 12 8 15 14 14 13 10 10 11 12 12 13 14 14 14 15 14 14 13 11 10 10
16 17 18 17 15 14 15 16 16 18 19 19 19 17 15 17 17 16 16 15 14 13 12 10 12 15 13 11 11 12 14 16 17 17 16 16 14 15 13 13 13 12 13
20 19 18 18 16 15 15 15 16 16 14 16 17 16 16 16 16 17 17 14 14 14 14 12 14 16 15 15 17 18 19 19 18 18 19 18 16 15 15 14 13 13 14
23 22 21 21 18 16 16 17 16 15 15 16 15 17 17 18 17 17 18 16 16 15 15 17 16 16 16 16 19 21 20 21 20 18 17 17 17 17 16 16 16 16 14
26 26 25 23 22 20 20 19 19 19 18 18 17 18 20 19 18 19 17 16 17 16 18 19 20 18 18 21 23 25 22 21 18 17 17 16 17 17 18 18 18 17 16
29 29 29 29 26 24 23 23 22 21 20 20 19 21 21 20 21 20 17 18 17 18 21 21 21 21 25 26 27 24 22 21 18 19 18 17 17 19 20 20 22 21 22
32 31 32 33 31 30 28 26 24 24 23 22 22 22 21 20 19 18 19 20 20 21 23 23 23 24 26 28 26 24 23 21 20 18 18 20 20 23 21 21 24 26 24
38 34 34 35 36 34 33 31 28 27 26 26 25 24 23 22 22 21 22 21 21 22 21 22 25 26 28 29 28 25 20 19 21 19 20 22 23 22 22 22 23 21 23
43 41 39 37 36 37 36 35 33 32 30 29 29 26 24 22 23 23 22 22 22 22 22 25 27 27 29 29 28 22 18 17 19 19 22 16 14 15 18 19 19 21 23
43 44 46 46 42 39 35 36 36 37 35 32 30 30 29 26 25 23 24 24 23 24 25 27 26 26 26 24 18 15 17 17 12 9 10 14 14 16 18 17 18 20 19
43 44 46 50 51 46 41 35 35 37 40 35 34 31 30 29 26 23 24 26 25 25 25 26 29 29 25 22 18 11 5 8 11 13 15 15 15 17 20 21 22 24 24
46 48 48 46 50 49 50 45 41 39 39 38 35 32 31 30 27 24 25 26 25 27 30 30 22 10 6 4 4 6 7 9 12 16 17 18 20 21 23 28 26 26 28

GFSMA_700_spd_147.txt.gz
Wind_Speed
12 9 12 6 12 6 3 7 5 3 5 5 7 9 7 5 5 2 2 2 3 4 8 11 16 19 20 17 14 11 12 9 11 10 9 10 9 9 8 8 7 7 7
11 8 9 5 5 10 8 6 6 5 6 2 3 8 8 5 2 1 3 3 5 7 10 14 18 20 21 18 14 11 10 9 10 11 10 11 9 8 7 7 7 7 8
11 13 10 8 7 13 8 6 5 10 8 4 4 6 5 3 1 1 3 7 9 10 13 16 16 18 20 17 12 10 8 8 10 12 12 12 10 7 6 6 6 6 8
10 10 11 4 7 9 5 5 4 7 5 4 7 6 5 2 1 3 4 7 10 11 18 15 14 16 19 14 14 12 12 11 13 15 14 12 12 8 6 6 6 6 6
11 10 10 11 9 9 10 11 3 15 5 3 4 6 3 2 3 6 7 8 13 14 11 13 14 14 16 15 13 12 14 13 15 16 15 11 10 8 6 6 6 6 7
12 11 8 8 10 6 3 12 12 8 12 9 6 8 5 5 6 4 6 11 10 15 11 14 15 16 15 13 12 11 11 13 16 17 16 12 8 8 5 4 5 5 6
12 11 9 9 8 15 19 10 6 1 7 5 9 5 9 15 8 8 8 8 9 11 10 12 14 16 14 11 11 10 9 13 15 17 18 14 9 7 4 2 3 4 5
12 12 12 12 12 10 11 11 9 9 5 5 7 8 8 13 4 5 12 10 11 8 12 18 13 14 13 12 10 10 7 11 15 17 17 16 12 8 4 3 3 4 6
9 11 12 12 10 11 9 15 14 12 10 14 7 4 5 11 7 5 14 7 19 8 12 12 17 15 12 15 13 9 7 11 14 16 16 15 13 10 6 4 3 5 5
10 11 13 13 12 12 16 13 16 16 12 7 9 7 7 6 8 4 5 17 18 14 17 19 9 19 14 10 12 10 12 13 14 15 15 14 11 10 7 6 7 6 6
11 11 12 13 12 10 14 14 16 17 16 13 8 9 9 9 7 8 4 6 9 13 10 10 16 7 20 11 10 12 13 12 12 12 14 14 10 8 9 8 7 8 7
11 9 10 10 11 10 10 12 13 16 18 16 15 13 10 7 11 11 9 9 10 11 15 6 7 14 10 15 12 12 13 12 13 12 11 12 12 11 10 8 8 8 8
9 13 10 11 12 13 11 10 11 13 15 17 14 15 9 9 7 10 9 8 9 8 13 16 10 13 12 14 17 14 13 13 14 14 13 13 13 13 13 12 11 9 9
12 11 14 17 15 14 14 12 11 11 15 17 15 12 10 9 8 10 10 11 8 6 9 11 18 13 15 10 15 14 11 12 13 14 15 14 14 14 12 13 14 12 10
20 16 13 19 17 16 15 14 14 13 13 11 12 11 12 11 9 10 13 11 14 10 11 14 17 14 11 14 10 11 14 15 16 15 14 15 16 14 13 12 12 13 13
16 22 22 20 19 14 14 15 17 16 16 15 15 15 17 14 13 11 12 15 11 13 9 12 12 15 10 12 12 13 17 19 17 18 17 16 16 15 13 13 12 11 11
21 20 20 19 19 18 16 16 17 16 16 15 16 17 16 14 13 14 10 14 14 13 12 9 12 17 15 13 14 16 18 23 21 16 18 17 15 14 14 14 13 14 14
22 23 22 21 20 19 19 18 19 18 18 18 17 16 15 15 14 15 15 16 17 15 14 10 12 17 17 15 14 17 20 18 23 18 16 16 16 15 15 14 14 15 16
22 24 25 25 23 23 22 21 20 20 20 17 18 17 17 16 16 17 17 19 18 16 17 15 14 17 17 19 21 23 22 20 19 19 16 15 15 14 15 15 16 17 17
26 26 28 28 28 27 26 26 24 22 22 21 20 21 19 19 19 19 19 18 17 16 18 19 17 22 20 21 23 23 22 22 24 22 18 15 16 16 16 19 20 19 19
31 30 29 31 32 32 31 29 27 25 24 24 23 23 23 21 20 19 18 16 17 19 19 20 20 19 20 22 24 23 24 24 20 20 18 18 19 18 18 19 21 20 20
35 36 36 33 33 34 34 33 32 30 28 27 26 25 25 24 22 21 21 20 20 21 21 21 20 22 22 23 24 24 24 21 20 19 20 20 20 17 14 13 14 14 15
40 41 40 40 39 36 34 36 35 33 33 32 30 27 27 27 22 22 22 22 22 21 22 22 23 23 26 24 25 25 19 16 16 19 15 14 10 12 13 14 15 15 16
32 34 39 42 42 42 37 36 36 35 37 38 37 30 30 31 27 26 25 25 24 21 22 24 25 25 25 27 27 24 21 18 12 5 5 9 12 12 14 16 18 19 21
36 37 37 37 38 40 44 39 41 39 37 38 37 36 34 33 29 30 29 28 26 24 23 24 26 26 28 29 23 18 8 7 6 8 8 12 14 17 19 18 18 20 21
38 40 42 42 41 40 41 41 38 42 42 40 36 35 37 36 33 33 30 29 27 25 23 29 30 30 17 11 5 4 5 7 8 13 10 14 16 17 16 25 24 18 15

GFSMA_700_spd_150.txt.gz
Wind_Speed
8 11 11 6 17 12 5 13 5 6 9 10 6 12 9 6 4 4 2 4 6 8 11 15 18 19 18 13 4 3 3 3 5 7 7 8 7 5 3 2 3 4 5
15 12 11 11 6 10 7 9 7 5 10 6 1 4 6 5 0 5 5 5 6 8 11 13 14 18 17 15 10 5 5 6 5 6 6 7 6 5 4 4 4 5 6
12 14 12 11 16 13 9 9 14 10 7 6 1 3 1 1 1 3 7 7 7 10 9 12 14 15 16 13 12 11 10 9 9 8 7 5 5 2 3 4 5 6 7
12 11 12 13 11 13 11 13 7 10 2 9 4 1 2 2 2 5 5 11 15 16 12 10 11 14 13 12 10 9 10 9 12 12 9 5 5 3 3 5 5 6 7
11 10 3 6 14 13 10 8 14 11 6 4 3 6 9 7 6 8 13 11 5 4 12 11 11 13 11 10 9 8 10 11 14 14 12 5 5 3 3 4 5 5 6
11 8 9 8 9 11 6 9 16 12 10 7 7 10 6 8 11 7 6 18 17 18 15 15 15 13 12 10 9 8 8 12 16 16 16 10 5 3 3 2 2 3 4
11 10 8 8 8 6 13 7 8 16 9 4 8 4 9 10 13 15 4 1 18 10 12 14 15 19 14 9 7 6 7 12 15 17 17 13 8 4 2 2 2 3 5
10 12 12 12 14 11 12 10 10 7 10 8 7 4 5 7 20 2 5 4 11 7 13 24 17 15 15 12 5 6 5 10 13 15 15 14 11 7 3 2 3 4 6
12 14 13 14 9 11 11 14 12 10 6 2 3 5 9 8 6 9 10 8 15 5 3 21 15 14 15 18 9 7 9 11 11 12 13 14 10 10 7 3 3 4 5
10 11 11 12 11 11 12 10 13 13 10 10 4 7 7 6 8 3 7 5 7 15 19 16 16 20 15 14 13 8 11 11 10 10 10 12 12 10 9 6 6 6 7
13 12 11 13 13 12 13 12 12 13 14 12 12 12 9 2 7 4 5 10 7 7 16 14 17 15 19 18 20 10 11 12 13 13 12 12 11 11 11 10 9 8 7
11 11 9 11 12 12 11 10 10 12 15 14 14 15 10 4 11 6 5 11 1 7 12 17 5 11 21 20 9 13 12 12 12 13 13 12 12 11 10 10 10 10 8
12 11 10 10 10 12 13 11 11 11 13 14 14 14 13 11 12 6 10 8 7 6 10 11 8 14 20 20 22 10 9 12 12 12 13 13 12 12 11 9 9 10 10
12 13 11 12 11 12 14 13 12 13 14 15 15 15 14 9 14 8 6 12 11 7 12 13 17 11 18 17 12 12 10 13 14 14 14 14 14 14 12 12 11 10 10
19 13 16 14 16 15 16 15 16 14 14 11 12 14 13 12 11 9 10 12 16 13 16 17 16 11 13 15 14 14 14 16 18 17 15 15 15 14 12 12 12 12 11
18 20 19 19 16 17 17 18 18 19 17 15 13 14 16 15 14 16 8 13 14 14 6 9 14 14 8 14 14 14 15 17 20 15 17 17 15 14 12 11 11 11 11
17 17 18 21 18 19 19 19 17 18 19 16 17 18 19 18 13 11 12 14 12 13 11 10 14 19 13 13 13 13 17 20 22 17 16 16 16 15 13 12 11 11 11
20 21 20 19 20 19 20 20 18 18 18 16 16 18 17 15 14 13 14 13 14 13 16 12 14 12 15 15 11 14 18 21 19 17 19 18 15 16 15 14 14 14 14
21 22 22 23 23 22 21 21 20 19 20 19 17 17 18 16 15 15 16 15 16 17 17 15 14 15 16 17 17 17 18 21 20 20 22 20 18 16 15 15 16 17 18
26 25 24 24 24 26 25 24 24 22 21 20 19 19 18 17 19 17 18 17 17 16 16 14 16 19 19 19 19 19 20 20 23 22 19 19 17 15 16 18 19 19 20
33 31 26 27 27 26 27 27 26 26 26 25 22 22 21 20 20 21 19 17 16 15 16 19 19 19 19 19 21 22 21 22 23 22 22 20 17 18 17 18 14 13 14
31 33 35 33 33 31 28 28 28 28 28 28 27 26 25 23 22 23 22 20 19 19 18 20 22 20 20 21 22 24 24 24 23 20 21 22 20 18 14 12 13 13 14
35 37 36 34 35 34 31 30 29 29 28 29 30 30 29 28 25 24 24 22 22 22 21 22 22 19 21 23 24 25 24 24 22 19 20 18 14 10 12 14 14 16 17
27 29 30 29 32 34 34 34 37 38 34 31 29 32 32 31 29 27 27 27 26 23 25 26 21 22 22 23 23 27 28 25 23 20 12 10 11 11 12 15 18 19 19
32 33 31 31 31 31 30 32 33 36 35 33 32 35 32 31 31 31 31 31 28 26 26 26 23 23 23 25 26 26 21 17 12 10 11 12 12 16 14 13 17 16 17
35 36 36 37 36 36 34 33 31 34 35 36 40 38 38 33 31 30 33 34 32 28 27 26 25 25 25 22 18 11 9 9 11 10 11 14 15 14 16 19 17 18 15